When you browse on this site, cookies collect data to enhance your experience and personalize the content and advertising you see.
Visit our Privacy Policy to learn more. By continuing to use the site, you agree to this use of cookies and data.
  • In Lithuania
  • List of Countries
  • For 7 days
  • Water Temperature
  • Satellite Maps
  • Weather Map
  • Weather Widgets
  • user-avatar
    Login

    Hourly Weather Red Deer

    Today, 26 May, Sunday

    Time Temperature Precipitation Wind Pressure Humidity
    00:00 +8°C° 0 mm 1 mps 686 mmHg 76%
    01:00 +7°C° 0 mm 2 mps 686 mmHg 79%
    02:00 +7°C° 0 mm 2 mps 686 mmHg 81%
    03:00 +6°C° 0 mm 2 mps 687 mmHg 83%
    04:00 +6°C° 0 mm 2 mps 687 mmHg 85%
    05:00 +8°C° 0 mm 2 mps 687 mmHg 78%
    06:00 +10°C° 0 mm 2 mps 687 mmHg 71%
    07:00 +13°C° 0 mm 2 mps 687 mmHg 64%
    08:00 +14°C° 0 mm 1 mps 688 mmHg 58%
    09:00 +16°C° 0 mm 1 mps 688 mmHg 51%
    10:00 +19°C° 0 mm 1 mps 688 mmHg 44%
    11:00 +19°C° 0 mm 1 mps 688 mmHg 44%
    12:00 +17°C° 0 mm 2 mps 687 mmHg 44%
    13:00 +17°C° 0 mm 2 mps 687 mmHg 44%
    14:00 +18°C° 0 mm 2 mps 687 mmHg 43%
    15:00 +18°C° 0 mm 2 mps 687 mmHg 43%
    16:00 +18°C° 0 mm 2 mps 686 mmHg 43%
    17:00 +17°C° 0 mm 2 mps 686 mmHg 49%
    18:00 +15°C° 0 mm 2 mps 686 mmHg 55%
    19:00 +14°C° 0 mm 2 mps 686 mmHg 61%
    20:00 +12°C° 0 mm 3 mps 685 mmHg 62%
    21:00 +10°C° 0 mm 3 mps 685 mmHg 64%
    22:00 +9°C° 0 mm 3 mps 685 mmHg 66%
    23:00 +8°C° 0 mm 3 mps 685 mmHg 64%

    Tomorrow, 27 May, Monday

    Time Temperature Precipitation Wind Pressure Humidity
    00:00 +8°C° 0 mm 3 mps 685 mmHg 63%
    01:00 +7°C° 0 mm 3 mps 684 mmHg 61%
    02:00 +7°C° 0 mm 3 mps 684 mmHg 62%
    03:00 +5°C° 0 mm 3 mps 684 mmHg 63%
    04:00 +5°C° 0 mm 3 mps 684 mmHg 65%
    05:00 +7°C° 0 mm 4 mps 684 mmHg 61%
    06:00 +9°C° 0 mm 5 mps 684 mmHg 57%
    07:00 +13°C° 0 mm 5 mps 685 mmHg 54%
    08:00 +14°C° 0 mm 5 mps 685 mmHg 52%
    09:00 +16°C° 0 mm 5 mps 685 mmHg 50%
    10:00 +17°C° 0 mm 5 mps 685 mmHg 49%
    11:00 +19°C° 0 mm 4 mps 685 mmHg 46%
    12:00 +20°C° 0 mm 4 mps 684 mmHg 44%
    13:00 +21°C° 0 mm 3 mps 684 mmHg 42%
    14:00 +21°C° 0 mm 3 mps 684 mmHg 41%
    15:00 +21°C° 0 mm 2 mps 684 mmHg 40%
    16:00 +23°C° 0 mm 2 mps 684 mmHg 39%
    17:00 +20°C° 0 mm 2 mps 683 mmHg 45%
    18:00 +18°C° 0 mm 2 mps 683 mmHg 52%
    19:00 +17°C° 0 mm 2 mps 683 mmHg 58%
    20:00 +15°C° 0 mm 2 mps 683 mmHg 60%
    21:00 +14°C° 0 mm 2 mps 683 mmHg 62%
    22:00 +12°C° 0 mm 3 mps 683 mmHg 64%
    23:00 +12°C° 0 mm 2 mps 682 mmHg 66%

    Day after tomorrow, 28 May, Tuesday

    Time Temperature Precipitation Wind Pressure Humidity
    00:00 +10°C° 0 mm 2 mps 682 mmHg 68%
    01:00 +10°C° 0 mm 2 mps 682 mmHg 70%
    02:00 +9°C° 0 mm 2 mps 682 mmHg 72%
    03:00 +10°C° 0 mm 1 mps 682 mmHg 75%
    04:00 +10°C° 0 mm 1 mps 682 mmHg 78%
    05:00 +12°C° 0 mm 1 mps 682 mmHg 72%
    06:00 +14°C° 0 mm 1 mps 683 mmHg 67%
    07:00 +16°C° 0 mm 2 mps 683 mmHg 61%
    08:00 +18°C° 0 mm 2 mps 683 mmHg 55%
    09:00 +20°C° 0 mm 2 mps 684 mmHg 48%
    10:00 +21°C° 0 mm 2 mps 684 mmHg 42%
    11:00 +23°C° 0 mm 1 mps 684 mmHg 38%
    12:00 +25°C° 0 mm 1 mps 684 mmHg 34%
    13:00 +24°C° 0 mm 0 mps 684 mmHg 30%
    14:00 +23°C° 0 mm 0 mps 683 mmHg 29%
    15:00 +23°C° 0 mm 0 mps 683 mmHg 29%
    16:00 +23°C° 0 mm 0 mps 682 mmHg 28%
    17:00 +23°C° 0 mm 1 mps 682 mmHg 34%
    18:00 +22°C° 0 mm 1 mps 682 mmHg 40%
    19:00 +20°C° 0 mm 1 mps 681 mmHg 45%
    20:00 +19°C° 0 mm 1 mps 681 mmHg 46%
    21:00 +16°C° 0 mm 1 mps 681 mmHg 46%
    22:00 +15°C° 0 mm 2 mps 681 mmHg 47%
    23:00 +14°C° 0 mm 2 mps 681 mmHg 49%

    29 May, Wednesday

    Time Temperature Precipitation Wind Pressure Humidity
    00:00 +14°C° 0 mm 2 mps 680 mmHg 52%
    01:00 +13°C° 0 mm 2 mps 680 mmHg 54%
    02:00 +13°C° 0 mm 2 mps 680 mmHg 57%
    03:00 +13°C° 0 mm 2 mps 679 mmHg 60%
    04:00 +12°C° 0 mm 2 mps 679 mmHg 62%
    05:00 +15°C° 0 mm 2 mps 680 mmHg 59%
    06:00 +17°C° 0 mm 2 mps 680 mmHg 56%
    07:00 +19°C° 0 mm 2 mps 680 mmHg 53%
    08:00 +22°C° 0 mm 1 mps 680 mmHg 48%
    09:00 +24°C° 0 mm 1 mps 681 mmHg 43%
    10:00 +26°C° 0 mm 1 mps 681 mmHg 38%
    11:00 +27°C° 0 mm 1 mps 681 mmHg 35%
    12:00 +27°C° 0 mm 1 mps 680 mmHg 33%
    13:00 +28°C° 0 mm 1 mps 680 mmHg 30%
    14:00 +28°C° 0 mm 1 mps 680 mmHg 32%
    15:00 +28°C° 0 mm 2 mps 680 mmHg 33%
    16:00 +28°C° 0 mm 2 mps 679 mmHg 34%
    17:00 +26°C° 0 mm 1 mps 679 mmHg 40%
    18:00 +25°C° 0 mm 1 mps 679 mmHg 47%
    19:00 +21°C° 0 mm 0 mps 678 mmHg 53%
    20:00 +21°C° 0 mm 1 mps 678 mmHg 55%
    21:00 +19°C° 0 mm 2 mps 678 mmHg 58%
    22:00 +18°C° 0 mm 3 mps 678 mmHg 61%
    23:00 +17°C° 0 mm 3 mps 678 mmHg 69%

    30 May, Thursday

    Time Temperature Precipitation Wind Pressure Humidity
    00:00 +15°C° 0 mm 2 mps 677 mmHg 78%
    01:00 +14°C° 0 mm 2 mps 677 mmHg 86%
    02:00 +14°C° 0.1 mm 2 mps 677 mmHg 87%
    03:00 +14°C° 0.1 mm 2 mps 677 mmHg 88%
    04:00 +14°C° 0.1 mm 2 mps 677 mmHg 89%
    05:00 +15°C° 0.4 mm 2 mps 678 mmHg 85%
    06:00 +16°C° 0.4 mm 2 mps 678 mmHg 82%
    07:00 +18°C° 0.4 mm 2 mps 678 mmHg 79%
    08:00 +19°C° 0.6 mm 2 mps 678 mmHg 75%
    09:00 +20°C° 0.6 mm 2 mps 678 mmHg 71%
    10:00 +21°C° 0.6 mm 2 mps 678 mmHg 67%
    11:00 +22°C° 0.5 mm 3 mps 678 mmHg 65%
    12:00 +22°C° 0.5 mm 3 mps 678 mmHg 63%
    13:00 +23°C° 0.5 mm 4 mps 678 mmHg 61%
    14:00 +22°C° 0.8 mm 3 mps 677 mmHg 65%
    15:00 +21°C° 0.8 mm 3 mps 677 mmHg 70%
    16:00 +20°C° 0.8 mm 3 mps 677 mmHg 74%
    17:00 +19°C° 0.1 mm 2 mps 677 mmHg 78%
    18:00 +19°C° 0.1 mm 1 mps 677 mmHg 81%
    19:00 +19°C° 0.1 mm 1 mps 677 mmHg 85%
    20:00 +18°C° 0.3 mm 1 mps 677 mmHg 86%
    21:00 +16°C° 0.3 mm 1 mps 677 mmHg 88%
    22:00 +16°C° 0.3 mm 2 mps 677 mmHg 89%
    23:00 +15°C° 0.6 mm 2 mps 678 mmHg 91%

    31 May, Friday

    Time Temperature Precipitation Wind Pressure Humidity
    00:00 +14°C° 0.6 mm 2 mps 678 mmHg 93%
    01:00 +13°C° 0.6 mm 3 mps 678 mmHg 95%
    02:00 +12°C° 0.1 mm 4 mps 679 mmHg 94%
    03:00 +12°C° 0.1 mm 5 mps 679 mmHg 94%
    04:00 +10°C° 0.1 mm 6 mps 680 mmHg 94%
    05:00 +10°C° 0 mm 5 mps 680 mmHg 93%
    06:00 +9°C° 0 mm 5 mps 680 mmHg 92%
    07:00 +8°C° 0 mm 5 mps 681 mmHg 92%
    08:00 +9°C° 0 mm 5 mps 681 mmHg 89%
    09:00 +11°C° 0 mm 4 mps 681 mmHg 86%
    10:00 +12°C° 0 mm 4 mps 682 mmHg 83%
    11:00 +13°C° 0 mm 4 mps 682 mmHg 80%
    12:00 +13°C° 0 mm 3 mps 682 mmHg 77%
    13:00 +14°C° 0 mm 3 mps 682 mmHg 74%
    14:00 +15°C° 0 mm 2 mps 682 mmHg 73%
    15:00 +15°C° 0 mm 2 mps 682 mmHg 71%
    16:00 +15°C° 0 mm 1 mps 682 mmHg 70%
    17:00 +15°C° 0 mm 1 mps 682 mmHg 73%
    18:00 +14°C° 0 mm 1 mps 681 mmHg 77%
    19:00 +13°C° 0 mm 1 mps 681 mmHg 80%
    20:00 +12°C° 0 mm 1 mps 681 mmHg 83%
    21:00 +11°C° 0 mm 1 mps 681 mmHg 86%
    22:00 +9°C° 0 mm 2 mps 681 mmHg 89%
    23:00 +9°C° 0 mm 2 mps 681 mmHg 90%
    Show more